Regional Weather Roundup
Issued by NWS Cleveland, OH

Home | Current Version | Previous Version | Text Only | Print | Product List | Glossary Off
Versions: 1 2 3 4 5 6 7 8 9 10 11 12 13 14 15 16 17 18 19 20 21 22 23 24 25 26 27 28 29 30 31 32 33 34 35 36 37 38 39 40 41 42 43 44 45 46 47 48 49 50

177
ASUS41 KCLE 220600
RWRCLE
OHIO REGIONAL WEATHER ROUNDUP
NATIONAL WEATHER SERVICE WILMINGTON, OH
200 AM EDT FRI MAY 22 2015

NOTE: "FAIR" INDICATES FEW OR NO CLOUDS BELOW 12,000 FEET WITH NO
SIGNIFICANT WEATHER AND/OR OBSTRUCTIONS TO VISIBILITY.

OHZ001>008-015>018-024>027-034-035-043-044-220700-
   NORTHWEST OHIO

CITY           SKY/WX    TMP DP  RH WIND       PRES   REMARKS
DEFIANCE       CLEAR     46  37  71 SW5       30.04S
FINDLAY        CLEAR     48  38  68 SW6       30.04S
TOLEDO EXPRESS MOCLDY    51  34  52 SW5       30.02S
TOLEDO EXEC    PTCLDY    50  36  58 SW8       30.03S
LIMA           CLEAR     48  38  68 SW6       30.06F
$$

OHZ009>014-019>023-028>033-038-089-220700-
   NORTHEAST OHIO

CITY           SKY/WX    TMP DP  RH WIND       PRES   REMARKS
CLE-HOPKINS    PTCLDY    50  37  61 SW8       30.04S
CLE-LAKEFRONT  PTCLDY    53  38  56 SW13      30.01R
CUY CO. ARPT   NOT AVBL
LORAIN-ELYRIA  CLEAR     46  38  73 SW6       30.03F
ASHTABULA      CLEAR     46  37  71 SW5       30.00S
AKRON-CANTON   CLEAR     46  36  68 SW7       30.04S
WOOSTER        NOT AVBL
MANSFIELD      CLEAR     45  36  70 SW6       30.06S
YOUNGSTOWN     CLEAR     45  36  70 SW9       30.01S
$$

OHZ042-051>053-060>062-070>072-077>081-220700-
  SOUTHWEST OHIO

CITY           SKY/WX    TMP DP  RH WIND       PRES   REMARKS
CINC-COVINGTON CLEAR     47  41  80 SW5       30.13F
CINC-LUNKEN    CLEAR     41  40  96 CALM      30.14F
HAMILTON       CLEAR     42  41  96 CALM      30.13F
DAYTON         NOT AVBL
WRIGHT-PAT AFB NOT AVBL
DAYTON GENERAL CLEAR     49  42  77 SW7       30.10F
WILMINGTON     CLEAR     44  38  79 SW7       30.11F
$$

OHZ036-037-039>041-045>050-054>059-063>069-073>076-082>088-220700-
  CENTRAL AND SOUTHEAST OHIO

CITY           SKY/WX    TMP DP  RH WIND       PRES   REMARKS
COLUMBUS       CLEAR     46  41  82 CALM      30.09S
OSU AIRPORT    CLEAR     47  39  74 SW6       30.08F
BOLTON FIELD   NOT AVBL
RICKENBACK AFB NOT AVBL
NEWARK         CLEAR     43  39  86 CALM      30.08F
MARION         CLEAR     45  37  73 SW7       30.07S
LANCASTER      CLEAR     44  39  82 VRB3      30.10S
ZANESVILLE     CLEAR     43  39  86 CALM      30.08F
NEW PHILLY     CLEAR     43  40  89 CALM      30.07S FOG
$$



USA.gov is the U.S. government's official web portal to all federal, state and local government web resources and services.